Lamoni, IA

10:38 AM CST on January 22, 2018 (GMT -0600)
Lamoni Municipal

Weather History for KLWD - January, 2014

Change the Weather History Date:

Monday, January 6, 2014

  Actual Average Record
Temperature  
Mean Temperature -8 °F 24 °F  
Max Temperature -2 °F 33 °F 55 °F (2012)
Min Temperature -14 °F 15 °F -14 °F (2014)
Degree Days  
Heating Degree Days 73 41  
Month to date heating degree days 354 246  
Since 1 July heating degree days 2900 2675  
Cooling Degree Days 0 0  
Month to date cooling degree days 0 0  
Year to date cooling degree days 0 0  
Moisture  
Dew Point -18 °F    
Average Humidity 63    
Maximum Humidity 71    
Minimum Humidity 54    
Precipitation  
Precipitation T in 0.03 in 0.10 in (1976)
Month to date precipitation 0.23 0.14  
Sea Level Pressure  
Sea Level Pressure 30.48 in    
Wind  
Wind Speed 15 mph (WNW)    
Max Wind Speed 26 mph    
Max Gust Speed 34 mph    
Visibility 10 miles    
Events      
T = Trace of Precipitation, MM = Missing Value Source: NWS Daily Summary

Daily Weather History Graph

Daily Weather History Graph

Search for Another Location

Airport or City:

Trip Planner

Search our weather history database for the weather conditions in past years. The results will help you decide how hot, cold, wet, or windy it might be!

Date:

Astronomy

Jan. 06, 2014 Rise Set
Actual Time 7:39 AM CST 5:03 PM CST
Civil Twilight 7:08 AM CST 5:34 PM CST
Nautical Twilight 6:34 AM CST 6:08 PM CST
Astronomical Twilight 6:01 AM CST 6:41 PM CST
Moon 10:53 AM CST (1/6) 11:39 PM CST (1/6)
Length of Visible Light 10h 25m
Length of Day
9h 24m
Waxing Crescent, 35% of the Moon is Illuminated
Jan 6
Waxing Crescent
Jan 7
First Quarter
Jan 15
Full
Jan 23
Last Quarter
Jan 30
New

Hourly Weather History & Observations

Time (CST) Temp. Windchill Dew Point Humidity Pressure Visibility Wind Dir Wind Speed Gust Speed Precip Events Conditions
12:07 AM -9.9 °F -36.5 °F -20.0 °F 61% 30.42 in 8.0 mi NW 23.0 mph 33.4 mph N/A   Mostly Cloudy
12:40 AM -11.0 °F -36.8 °F -23.1 °F 55% 30.41 in 10.0 mi NW 20.7 mph 32.2 mph 0.00 in   Scattered Clouds
12:53 AM -11.0 °F -35.6 °F -23.1 °F 55% 30.51 in 10.0 mi NW 18.4 mph 31.1 mph 0.00 in   Clear
1:53 AM -11.9 °F -38.6 °F -23.1 °F 58% 30.51 in 10.0 mi NW 21.9 mph 26.5 mph N/A   Clear
2:53 AM -11.9 °F -34.6 °F -23.1 °F 58% 30.51 in 10.0 mi NW 15.0 mph 26.5 mph N/A   Clear
3:53 AM -11.9 °F -35.4 °F -23.1 °F 58% 30.50 in 10.0 mi NW 16.1 mph - N/A   Clear
4:53 AM -13.0 °F -36.0 °F -22.0 °F 64% 30.50 in 10.0 mi WNW 15.0 mph - N/A   Clear
5:53 AM -13.0 °F -33.4 °F -22.0 °F 64% 30.50 in 10.0 mi WNW 11.5 mph - N/A   Clear
6:53 AM -13.0 °F -33.4 °F -22.0 °F 64% 30.51 in 10.0 mi WNW 11.5 mph - N/A   Clear
7:53 AM -13.0 °F -36.8 °F -22.0 °F 64% 30.52 in 10.0 mi WNW 16.1 mph - N/A   Clear
8:53 AM -11.9 °F -36.8 °F -22.0 °F 61% 30.53 in 10.0 mi WNW 18.4 mph - N/A   Clear
9:53 AM -11.0 °F -36.2 °F -20.9 °F 62% 30.55 in 10.0 mi NW 19.6 mph 31.1 mph N/A   Mostly Cloudy
10:36 AM -9.0 °F -32.4 °F -20.9 °F 56% 30.44 in 10.0 mi WNW 17.3 mph 27.6 mph N/A   Partly Cloudy
10:53 AM -9.0 °F -32.4 °F -20.0 °F 59% 30.56 in 10.0 mi NW 17.3 mph 27.6 mph N/A   Partly Cloudy
11:53 AM -7.1 °F -30.4 °F -18.9 °F 56% 30.53 in 10.0 mi WNW 18.4 mph 26.5 mph N/A   Mostly Cloudy
12:01 PM -7.1 °F -29.1 °F -18.0 °F 59% 30.41 in 10.0 mi WNW 16.1 mph - N/A   Scattered Clouds
12:53 PM -6.0 °F -29.0 °F -17.0 °F 59% 30.51 in 10.0 mi WNW 18.4 mph 26.5 mph N/A   Partly Cloudy
1:24 PM -5.1 °F -27.8 °F -17.0 °F 57% 30.40 in 10.0 mi West 18.4 mph - N/A   Mostly Cloudy
1:53 PM -5.1 °F -27.8 °F -16.1 °F 59% 30.51 in 10.0 mi West 18.4 mph - N/A   Overcast
2:53 PM -2.9 °F -25.0 °F -15.0 °F 56% 30.50 in 10.0 mi West 18.4 mph - N/A   Mostly Cloudy
3:53 PM -2.9 °F -23.1 °F -13.0 °F 62% 30.50 in 10.0 mi WNW 15.0 mph - N/A   Mostly Cloudy
4:53 PM -2.9 °F -21.6 °F -13.0 °F 62% 30.50 in 10.0 mi West 12.7 mph - N/A   Mostly Cloudy
5:06 PM -4.0 °F -22.1 °F -14.1 °F 62% 30.38 in 10.0 mi West 11.5 mph - N/A   Partly Cloudy
5:53 PM -5.1 °F -22.5 °F -15.0 °F 62% 30.48 in 10.0 mi West 10.4 mph - N/A   Clear
6:53 PM -5.1 °F -21.5 °F -15.0 °F 62% 30.48 in 10.0 mi WSW 9.2 mph - N/A   Clear
7:53 PM -6.0 °F -22.6 °F -15.0 °F 65% 30.47 in 10.0 mi SW 9.2 mph - N/A   Clear
8:53 PM -7.1 °F -25.0 °F -15.0 °F 68% 30.46 in 10.0 mi SW 10.4 mph - N/A   Clear
9:53 PM -8.0 °F -25.0 °F -15.0 °F 71% 30.43 in 10.0 mi SW 9.2 mph - N/A   Clear
10:53 PM -6.0 °F -23.6 °F -14.1 °F 68% 30.43 in 10.0 mi WSW 10.4 mph - N/A   Clear
11:53 PM -6.0 °F -23.6 °F -14.1 °F 68% 30.40 in 10.0 mi SW 10.4 mph - N/A   Clear